HG8GL Weather Reports


time (UTC)temp
C
wind
direction
speed
KPH
gust
KPH
rain 1hr
cm
rain 24hr
cm
rain mn
cm
humidity
%
barometer
mb
20260507085511 20 206 0.0 0.0 0.00 0.00 0.00 67 1014.1
20260507085008 20 210 0.0 0.0 0.00 0.00 0.00 69 1015.0
20260507084009 19 161 0.0 0.0 0.00 0.00 0.00 73 1014.9
20260507083510 19 204 0.0 0.0 0.00 0.00 0.00 73 1014.0
20260507083010 19 199 0.0 0.0 0.00 0.00 0.00 73 1014.0
20260507082010 18 206 0.0 0.0 0.00 0.00 0.00 73 1015.0
20260507081508 18 171 0.0 0.0 0.00 0.00 0.00 73 1015.0
20260507081009 18 177 0.0 0.0 0.00 0.00 0.00 73 1014.8
20260507080008 18 182 0.0 0.0 0.00 0.00 0.00 72 1014.0
20260507075012 19 179 0.0 0.0 0.00 0.00 0.00 73 1014.0
20260507074511 19 224 0.0 0.0 0.00 0.00 0.00 73 1014.0
20260507074010 19 199 0.0 0.0 0.00 0.00 0.00 76 1014.0
20260507073512 19 202 0.0 0.0 0.00 0.00 0.00 76 1014.0
20260507073010 18 183 0.0 0.0 0.00 0.00 0.00 77 1014.0
20260507072509 18 190 0.0 0.0 0.00 0.00 0.00 78 1014.0
20260507071510 18 166 0.0 0.0 0.00 0.00 0.00 82 1014.0
20260507071008 18 171 0.0 0.0 0.00 0.00 0.00 83 1014.0
20260507070011 18 182 0.0 0.0 0.00 0.00 0.00 86 1014.0
20260507065008 17 178 0.0 0.0 0.00 0.00 0.00 88 1014.0
20260507064509 17 161 0.0 0.0 0.00 0.00 0.00 88 1014.0
20260507064010 17 163 0.0 0.0 0.00 0.00 0.00 88 1014.0
20260507063511 17 178 0.0 0.0 0.00 0.00 0.00 89 1014.0
20260507063009 16 180 0.0 0.0 0.00 0.00 0.00 89 1014.0
20260507062510 16 161 0.0 0.0 0.00 0.00 0.00 89 1014.0
20260507062009 16 183 0.0 0.0 0.00 0.00 0.00 89 1014.0
20260507061510 16 180 0.0 0.0 0.00 0.00 0.00 89 1014.0
20260507061011 16 158 0.0 0.0 0.00 0.00 0.00 89 1014.0
20260507060010 16 180 0.0 0.0 0.00 0.00 0.00 88 1014.0
20260507055509 16 158 0.0 0.0 0.00 0.00 0.00 88 1013.9
20260507055008 16 158 0.0 0.0 0.00 0.00 0.00 88 1013.0
20260507054509 16 161 0.0 0.0 0.00 0.00 0.00 88 1013.0
20260507054009 16 154 0.0 0.0 0.00 0.00 0.00 88 1013.0
20260507053510 16 159 0.0 0.0 0.00 0.00 0.00 87 1013.0
20260507053010 16 167 0.0 0.0 0.00 0.00 0.00 87 1013.0
20260507052507 16 183 0.0 0.0 0.00 0.00 0.00 86 1013.0
20260507051508 16 172 0.0 0.0 0.00 0.00 0.00 86 1013.0
20260507051009 16 158 0.0 0.0 0.00 0.00 0.00 86 1013.0
20260507045508 16 158 0.0 0.0 0.00 0.00 0.00 86 1013.0
20260507045010 16 157 0.0 0.0 0.00 0.00 0.00 86 1013.0
20260507044508 16 158 0.0 0.0 0.00 0.00 0.00 86 1013.0
20260507044009 16 153 0.0 0.0 0.00 0.00 0.00 85 1013.0
20260507043508 16 158 0.0 0.0 0.00 0.00 0.00 85 1013.0
20260507043010 16 157 0.0 0.0 0.00 0.00 0.00 85 1013.0
20260507042508 16 151 0.0 0.0 0.00 0.00 0.00 85 1013.0
20260507042008 16 150 0.0 0.0 0.00 0.00 0.00 85 1013.0
20260507041508 16 150 0.0 0.0 0.00 0.00 0.00 85 1013.0
20260507041008 16 155 0.0 0.0 0.00 0.00 0.00 84 1012.9
20260507035507 16 158 0.0 0.0 0.00 0.00 0.00 83 1012.0
20260507035007 16 158 0.0 0.0 0.00 0.00 0.00 83 1012.0
20260507034507 16 155 0.0 0.0 0.00 0.00 0.00 83 1012.0
20260507033508 16 158 0.0 0.0 0.00 0.00 0.00 83 1012.0
20260507032507 16 158 0.0 0.0 0.00 0.00 0.00 82 1012.0
20260507032010 16 202 0.0 0.0 0.00 0.00 0.00 82 1012.0
20260507031510 16 202 0.0 0.0 0.00 0.00 0.00 82 1012.0
20260507031009 16 218 0.0 0.0 0.00 0.00 0.00 82 1012.0
20260507030008 16 202 0.0 0.0 0.00 0.00 0.00 82 1012.0
20260507025508 16 205 0.0 0.0 0.00 0.00 0.00 82 1012.0
20260507025008 16 248 0.0 0.0 0.00 0.00 0.00 83 1012.0
20260507024509 16 241 0.0 0.0 0.00 0.00 0.00 83 1012.0
20260507023008 16 158 0.0 0.0 0.00 0.00 0.00 83 1012.0
20260507022509 16 181 0.0 0.0 0.00 0.00 0.00 83 1012.0
20260507022008 16 222 0.0 0.0 0.00 0.00 0.00 83 1012.0
20260507021509 16 222 0.0 0.0 0.00 0.00 0.00 83 1012.0
20260507021010 16 161 0.0 0.0 0.00 0.00 0.00 83 1012.0
20260507020009 16 202 0.0 0.0 0.00 0.00 0.00 83 1012.0
20260507015508 16 202 0.0 0.0 0.00 0.00 0.00 83 1012.0
20260507014009 16 237 0.0 0.0 0.00 0.00 0.00 83 1012.0
20260507013010 17 252 0.0 0.0 0.00 0.00 0.00 82 1012.0
20260507012508 17 248 0.0 0.0 0.00 0.00 0.00 82 1012.0
20260507012009 17 266 0.0 0.0 0.00 0.00 0.00 81 1012.0
20260507011508 17 254 0.0 0.0 0.00 0.00 0.00 80 1012.0
20260507005509 17 292 0.0 0.0 0.00 0.00 0.00 80 1011.0
20260507005010 17 288 0.0 0.0 0.00 0.00 0.00 80 1011.0
20260507004509 17 272 0.0 0.0 0.00 0.00 0.00 80 1011.0
20260507004009 17 274 0.0 0.0 0.00 0.00 0.00 79 1011.1
20260507003512 17 304 0.0 0.0 0.00 0.00 0.00 78 1012.0
20260507003010 17 299 0.0 0.0 0.00 0.00 0.00 75 1012.0
20260507002512 17 311 0.0 0.0 0.00 0.00 0.00 75 1012.0
20260507002008 17 288 0.0 0.0 0.00 0.00 0.00 75 1012.0
20260507001509 17 291 0.0 0.0 0.00 0.00 0.00 74 1012.0
20260507001010 18 274 0.0 0.0 0.00 0.00 0.00 73 1011.9
20260507000010 18 284 0.0 0.0 0.00 0.00 0.00 72 1011.0
20260506235508 18 296 0.0 0.0 0.00 0.00 0.00 71 1011.1
20260506235010 18 284 0.0 0.0 0.00 0.00 0.00 71 1012.0
20260506234507 18 281 0.0 0.0 0.00 0.00 0.00 71 1012.0
20260506234009 18 259 0.0 0.0 0.00 0.00 0.00 71 1012.0
20260506233009 18 272 0.0 0.0 0.00 0.00 0.00 71 1012.0
20260506232510 18 273 0.0 0.0 0.00 0.00 0.00 71 1012.0
20260506232007 18 281 0.0 0.0 0.00 0.00 0.00 71 1012.0
20260506231508 18 269 0.0 0.0 0.00 0.00 0.00 70 1012.0
20260506231008 18 252 0.0 0.0 0.00 0.00 0.00 70 1012.0
20260506230009 18 259 0.0 0.0 0.00 0.00 0.00 69 1012.0
20260506225510 18 266 0.0 0.0 0.00 0.00 0.00 69 1012.0
20260506225010 18 254 0.0 0.0 0.00 0.00 0.00 68 1012.0
20260506224509 18 271 0.0 0.0 0.00 0.00 0.00 68 1012.0
20260506224009 18 263 0.0 0.0 0.00 0.00 0.00 67 1012.0
20260506223509 18 259 0.0 0.0 0.00 0.00 0.00 67 1012.0
20260506222513 18 270 0.0 0.0 0.00 0.00 0.00 65 1012.0
20260506222009 18 250 0.0 0.0 0.00 0.00 0.00 63 1012.0
20260506221507 18 271 0.0 0.0 0.00 0.00 0.00 63 1012.0
20260506221010 18 249 0.0 0.0 0.00 0.00 0.00 64 1012.0
20260506220010 18 288 0.0 0.0 0.00 0.00 0.00 63 1012.0
20260506215507 18 262 0.0 0.0 0.00 0.00 0.00 62 1011.8
20260506214010 18 268 0.0 0.0 0.00 0.00 0.00 60 1011.0
20260506213510 18 281 0.0 0.0 0.00 0.00 0.00 59 1011.0
20260506213009 18 281 0.0 0.0 0.00 0.00 0.00 59 1011.0
20260506212507 18 277 0.0 0.0 0.00 0.00 0.00 58 1011.0
20260506212010 19 277 0.0 0.0 0.00 0.00 0.00 57 1011.0
20260506211008 19 281 0.0 0.0 0.00 0.00 0.00 57 1011.0
20260506210007 19 269 0.0 0.0 0.00 0.00 0.00 56 1011.0
20260506205507 19 274 0.0 0.0 0.00 0.00 0.00 55 1010.9
20260506204508 19 270 0.0 0.0 0.00 0.00 0.00 56 1010.0
20260506204010 19 266 0.0 0.0 0.00 0.00 0.00 56 1010.2
20260506203008 19 293 0.0 0.0 0.00 0.00 0.00 54 1011.0
20260506202008 18 238 0.0 0.0 0.00 0.00 0.00 55 1011.0
20260506201509 18 260 0.0 0.0 0.00 0.00 0.00 56 1011.0
20260506201009 18 238 0.0 0.0 0.00 0.00 0.00 58 1010.8
20260506200008 17 248 0.0 0.0 0.00 0.00 0.00 53 1010.0
20260506195508 17 165 0.0 0.0 0.00 0.00 0.00 52 1010.2
20260506195009 17 158 0.0 0.0 0.00 0.00 0.00 52 1011.0
20260506194508 17 158 0.0 0.0 0.00 0.00 0.00 51 1011.0
20260506194008 17 158 0.0 0.0 0.00 0.00 0.00 51 1010.8
20260506193509 17 135 0.0 0.0 0.00 0.00 0.00 50 1010.0
20260506193009 18 135 0.0 0.0 0.00 0.00 0.00 50 1010.0
20260506192508 18 135 0.0 0.0 0.00 0.00 0.00 49 1010.0
20260506192008 18 135 0.0 0.0 0.00 0.00 0.00 49 1010.0
20260506191508 18 158 0.0 0.0 0.00 0.00 0.00 49 1010.0
20260506190008 18 158 0.0 0.0 0.00 0.00 0.00 48 1011.0
20260506185508 18 131 0.0 0.0 0.00 0.00 0.00 48 1010.8
20260506185009 18 143 0.0 0.0 0.00 0.00 0.00 47 1010.0
20260506184008 19 22 0.0 0.0 0.00 0.00 0.00 45 1010.0
20260506183008 20 22 0.0 0.0 0.00 0.00 0.00 44 1010.0
20260506182509 20 22 0.0 0.0 0.00 0.00 0.00 43 1010.0
20260506182008 20 22 0.0 0.0 0.00 0.00 0.00 43 1010.0
20260506181507 20 22 0.0 0.0 0.00 0.00 0.00 42 1010.0
20260506180008 21 22 0.0 0.0 0.00 0.00 0.00 40 1010.0
20260506175508 21 22 0.0 0.0 0.00 0.00 0.00 40 1010.0
20260506175008 22 22 0.0 0.0 0.00 0.00 0.00 39 1010.0
20260506174507 22 22 0.0 0.0 0.00 0.00 0.00 38 1010.0
20260506174008 22 22 0.0 0.0 0.00 0.00 0.00 38 1010.0
20260506173509 22 22 0.0 0.0 0.00 0.00 0.00 38 1010.0
20260506173008 23 22 0.0 0.0 0.00 0.00 0.00 36 1010.0
20260506172508 23 19 0.0 0.0 0.00 0.00 0.00 36 1010.0
20260506172008 23 248 0.0 0.0 0.00 0.00 0.00 36 1010.0
20260506171508 23 248 0.0 0.0 0.00 0.00 0.00 35 1010.0
20260506171008 24 248 0.0 0.0 0.00 0.00 0.00 35 1010.0
20260506170008 24 225 0.0 0.0 0.00 0.00 0.00 34 1010.0
20260506165508 24 227 0.0 0.0 0.00 0.00 0.00 34 1010.0
20260506165008 24 247 0.0 0.0 0.00 0.00 0.00 34 1010.0
20260506164510 25 214 0.0 0.0 0.00 0.00 0.00 34 1010.0
20260506164008 25 234 0.0 0.0 0.00 0.00 0.00 34 1010.0
20260506163510 25 238 0.0 0.0 0.00 0.00 0.00 34 1010.0
20260506162514 25 207 0.0 0.0 0.00 0.00 0.00 34 1010.0
20260506162009 25 221 0.0 0.0 0.00 0.00 0.00 33 1010.0
20260506161510 25 172 0.0 0.0 0.00 0.00 0.00 33 1010.0
20260506161011 25 186 0.0 0.0 0.00 0.00 0.00 33 1010.0
20260506160009 25 184 0.0 0.0 0.00 0.00 0.00 33 1010.0
20260506155009 25 192 0.0 0.0 0.00 0.00 0.00 33 1010.0
20260506154508 25 210 0.0 0.0 0.00 0.00 0.00 33 1010.0
20260506154010 25 233 0.0 0.0 0.00 0.00 0.00 33 1010.0
20260506153008 25 178 0.0 0.0 0.00 0.00 0.00 33 1010.0
20260506152508 26 158 0.0 0.0 0.00 0.00 0.00 33 1009.9
20260506152008 26 196 0.0 0.0 0.00 0.00 0.00 33 1009.0
20260506151507 26 198 0.0 0.0 0.00 0.00 0.00 33 1009.0
20260506151009 26 226 0.0 0.0 0.00 0.00 0.00 32 1009.1
20260506150011 26 240 0.0 0.0 0.00 0.00 0.00 32 1010.0
20260506145510 26 219 0.0 0.0 0.00 0.00 0.00 32 1010.0
20260506145010 26 170 0.0 0.0 0.00 0.00 0.00 32 1010.0
20260506144012 26 185 0.0 0.0 0.00 0.00 0.00 32 1010.0
20260506143510 27 171 0.0 0.0 0.00 0.00 0.00 32 1010.0
20260506143009 27 223 0.0 0.0 0.00 0.00 0.00 32 1010.0
20260506142513 27 178 0.0 0.0 0.00 0.00 0.00 32 1010.0
20260506142011 27 210 0.0 0.0 0.00 0.00 0.00 32 1010.0
20260506141511 27 188 0.0 0.0 0.00 0.00 0.00 32 1010.0
20260506141010 27 236 0.0 0.0 0.00 0.00 0.00 32 1010.0
20260506135508 27 208 0.0 0.0 0.00 0.00 0.00 33 1010.0
20260506135011 27 185 0.0 0.0 0.00 0.00 0.00 33 1010.0
20260506134510 27 183 0.0 0.0 0.00 0.00 0.00 33 1010.0
20260506133510 27 187 0.0 0.0 0.00 0.00 0.00 33 1010.0
20260506133013 26 170 0.0 0.0 0.00 0.00 0.00 33 1010.0
20260506132507 26 215 0.0 0.0 0.00 0.00 0.00 33 1010.0
20260506132008 26 163 0.0 0.0 0.00 0.00 0.00 33 1010.0
20260506131010 26 221 0.0 0.0 0.00 0.00 0.00 33 1010.2
20260506130008 26 206 0.0 0.0 0.00 0.00 0.00 34 1011.0
20260506125509 26 231 0.0 0.0 0.00 0.00 0.00 33 1011.2
20260506125013 26 195 0.0 0.0 0.00 0.00 0.00 34 1012.0
20260506124509 26 203 0.0 0.0 0.00 0.00 0.00 34 1012.0
20260506124009 26 158 0.0 0.0 0.00 0.00 0.00 34 1012.0
20260506123512 26 235 0.0 0.0 0.00 0.00 0.00 34 1012.0
20260506123011 26 171 0.0 0.0 0.00 0.00 0.00 34 1012.0
20260506122510 26 177 0.0 0.0 0.00 0.00 0.00 33 1011.8
20260506122011 26 164 0.0 0.0 0.00 0.00 0.00 34 1011.0
20260506121512 26 210 0.0 0.0 0.00 0.00 0.00 34 1011.0
20260506121010 26 183 0.0 0.0 0.00 0.00 0.00 34 1011.2
20260506115510 26 208 0.0 0.0 0.00 0.00 0.00 34 1012.0
20260506115009 26 178 0.0 0.0 0.00 0.00 0.00 34 1012.0
20260506114010 26 172 0.0 0.0 0.00 0.00 0.00 35 1012.0
20260506113510 26 150 0.0 0.0 0.00 0.00 0.00 35 1012.0
20260506113009 26 147 0.0 0.0 0.00 0.00 0.00 35 1012.0
20260506112510 26 187 0.0 0.0 0.00 0.00 0.00 35 1012.0
20260506112012 26 180 0.0 0.0 0.00 0.00 0.00 36 1012.0
20260506111508 25 186 0.0 0.0 0.00 0.00 0.00 36 1012.0
20260506111012 25 204 0.0 0.0 0.00 0.00 0.00 36 1012.0
20260506110010 25 212 0.0 0.0 0.00 0.00 0.00 37 1012.0
20260506105508 25 179 0.0 0.0 0.00 0.00 0.00 38 1012.1
20260506104508 25 195 0.0 0.0 0.00 0.00 0.00 38 1013.0
20260506104009 24 160 0.0 0.0 0.00 0.00 0.00 38 1012.9
20260506103510 24 166 0.0 0.0 0.00 0.00 0.00 38 1012.0
20260506103010 24 165 0.0 0.0 0.00 0.00 0.00 39 1012.0
20260506102010 23 171 0.0 0.0 0.00 0.00 0.00 39 1012.0
20260506101509 23 189 0.0 0.0 0.00 0.00 0.00 38 1012.0
20260506101011 23 237 0.0 0.0 0.00 0.00 0.00 38 1012.0
20260506100010 24 198 0.0 0.0 0.00 0.00 0.00 38 1012.0
20260506095509 24 161 0.0 0.0 0.00 0.00 0.00 38 1012.0
20260506095009 24 182 0.0 0.0 0.00 0.00 0.00 39 1012.0
20260506094511 24 255 0.0 0.0 0.00 0.00 0.00 38 1012.0
20260506094011 25 162 0.0 0.0 0.00 0.00 0.00 39 1012.2
20260506093513 25 173 0.0 0.0 0.00 0.00 0.00 39 1013.0
20260506093010 24 173 0.0 0.0 0.00 0.00 0.00 40 1013.0
20260506092511 24 192 0.0 0.0 0.00 0.00 0.00 41 1012.8
20260506090008 23 158 0.0 0.0 0.00 0.00 0.00 41 1012.0